GMT,Max TemperatureF,Mean TemperatureF,Min TemperatureF,Max Dew PointF,MeanDew PointF,Min DewpointF,Max Humidity, Mean Humidity, Min Humidity, Max Sea Level PressureIn, Mean Sea Level PressureIn, Min Sea Level PressureIn, Max VisibilityMiles, Mean VisibilityMiles, Min VisibilityMiles, Max Wind SpeedMPH, Mean Wind SpeedMPH, Max Gust SpeedMPH,PrecipitationIn, CloudCover, Events, WindDirDegrees
2012-10-1,55,50,46,50,47,43,94,85,77,29.62,29.57,29.50,6,6,5,21,14,,0.00,4,Rain,228
2012-10-2,55,50,46,48,46,43,93,86,72,29.53,29.44,29.30,6,6,4,20,12,,0.00,5,Rain-Thunderstorm,218
2012-10-3,53,46,39,46,43,36,100,85,67,29.53,29.40,29.30,6,6,4,15,8,,0.00,4,Rain,255
2012-10-4,55,44,32,46,41,32,100,88,72,29.65,29.58,29.50,6,6,6,15,5,,0.00,4,Fog-Rain-Thunderstorm,211
2012-10-5,53,46,39,45,42,37,100,86,67,29.71,29.57,29.47,6,6,2,9,5,,0.00,4,Fog-Rain,269
2012-10-6,55,46,37,46,41,34,100,84,67,30.06,29.88,29.71,6,6,6,13,5,,0.00,3,Fog,269
2012-10-7,55,42,30,43,37,30,100,83,58,30.21,30.15,30.06,6,6,6,7,3,,0.00,4,Fog,267
2012-10-8,55,44,32,45,39,30,100,84,63,30.15,30.06,30.01,6,5,0,9,3,,0.00,4,Fog,290
2012-10-9,53,42,30,39,35,30,100,80,50,30.09,30.06,30.04,6,6,6,6,3,,0.00,4,Fog,275
2012-10-10,53,40,26,45,36,25,100,84,62,30.04,29.93,29.77,6,5,0,8,2,,0.00,4,Fog-Rain,141
2012-10-11,55,50,46,50,48,45,100,93,82,29.74,29.60,29.50,6,4,1,10,7,,0.00,6,Rain,58
2012-10-12,50,48,46,48,44,41,100,86,71,29.56,29.50,29.44,6,6,2,16,7,,0.00,5,Rain,263
2012-10-13,51,48,44,45,42,41,93,81,67,29.59,29.56,29.53,6,6,6,13,10,,0.00,6,Rain,248
2012-10-14,53,48,42,46,44,41,100,90,67,29.68,29.63,29.56,6,6,2,12,4,,0.00,6,Rain,58
2012-10-15,50,41,32,41,36,30,100,86,62,29.62,29.49,29.39,6,5,0,7,3,,0.00,3,Fog,267
2012-10-16,46,40,35,41,37,34,100,87,76,29.50,29.37,29.27,6,6,4,10,6,,0.00,6,Fog-Rain,358
2012-10-17,48,40,33,46,41,34,100,95,87,29.50,29.34,29.24,6,5,2,17,8,,0.00,6,Fog-Rain,71
2012-10-18,51,46,42,48,46,41,100,94,87,29.65,29.47,29.36,6,5,0,15,8,,0.00,5,Fog-Rain,77
2012-10-19,50,48,46,48,47,43,100,94,87,29.77,29.74,29.65,6,6,2,12,8,,0.00,7,Rain,70
2012-10-20,55,50,46,48,47,45,100,92,72,30.01,29.88,29.74,6,4,1,10,3,,0.00,4,Fog-Rain,247
2012-10-21,59,50,41,48,45,39,100,89,67,30.24,30.13,30.04,6,5,0,8,3,,0.00,4,Fog-Rain,69
2012-10-22,50,41,32,46,42,32,100,93,82,30.36,30.30,30.24,6,4,0,15,5,23,0.00,7,Fog,79
2012-10-23,53,50,48,50,49,46,100,93,88,30.42,30.38,30.36,6,6,2,9,5,,0.00,7,Rain,55
2012-10-24,53,46,39,50,45,37,100,88,71,30.39,30.31,30.24,6,6,2,12,7,,0.00,6,Rain,65
2012-10-25,53,43,33,45,38,27,100,82,58,30.27,30.21,30.15,6,5,2,18,4,,0.00,5,,40
2012-10-26,44,36,28,32,26,21,93,70,42,30.27,30.19,30.09,6,6,6,13,6,,0.00,1,,329
2012-10-27,46,36,26,45,32,23,93,76,53,30.27,30.17,29.95,6,6,4,14,7,,0.00,5,Rain,265
2012-10-28,50,47,42,46,45,43,100,91,87,29.92,29.68,29.53,6,6,3,16,9,,0.00,6,Fog-Rain,243
2012-10-29,50,42,35,45,38,34,100,87,66,29.80,29.73,29.62,6,4,0,13,4,,0.00,4,Fog,253
2012-10-30,48,44,39,46,43,36,93,90,87,29.68,29.39,29.03,6,6,3,26,10,40,0.00,5,Rain,233
2012-10-31,48,40,33,45,40,32,100,91,87,29.00,28.84,28.80,6,5,0,26,12,38,0.00,6,Fog-Rain,220